Location: Poigny-la-Forêt
(48.6876°N, 1.7701°E)
Time: 23:35:17
(UTC+02:00)

ISS - Pass Details

Date: 21 May 2019
Orbit: 408 x 418 km, 51.6° (Epoch: 18 June)

Event Time Altitude Azimuth Distance (km) Brightness Sun altitude
Rises 03:26:47 0° 291° (WNW) 2,369 0.0 -17.9°
Reaches altitude 10° 03:28:55 10° 286° (WNW) 1,503 -1.0 -17.7°
Enters shadow 03:30:26 23° 275° (W) 932 -2.2 -17.6°
